Home   Weather   Basseterre   Past weeks

Flag for Saint Kitts and Nevis Past Weather in Basseterre, Saint Kitts and Nevis — Yesterday and Last 2 Weeks

Now
79 °F

Warm.


Feels Like: 82 °F
Forecast: 79 / 84 °F
Wind: 13 mph from East

Location: Roosevelt Airport / Saint Eustatius

Current Time: Dec 9, 2016 at 5:57:20 am

Latest Report: Dec 9, 2016 at 4:55 am


Visibility: N/A

Pressure: 29.98 "Hg

Humidity: 84%

Dew Point: 73 °F

Location of BasseterreLocation

Past Weather in Basseterre — Graph

°F

Basseterre Temperature Yesterday

Maximum temperature yesterday: 84 °F (at 10:55 am)
Minimum temperature yesterday: 79 °F (at 4:55 am)
Average temperature yesterday: 81 °F

High & Low Weather Summary for the Past Weeks

 TemperatureHumidityPressure
High86 °F (Nov 24, 11:55 am)100% (Nov 28, 11:55 am)30.07 "Hg (Nov 28, 11:55 am)
Low72 °F (Nov 28, 8:55 am)55% (Nov 27, 12:55 pm)29.71 "Hg (Nov 28, 3:55 pm)
Average80 °F79%29.93 "Hg
* Reported Nov 23 10:55 pm — Dec 8 10:55 pm, Basseterre, Weather by CustomWeather, © 2016

Note: Actual official high and low records may vary slightly from our data, if they occured in-between our weather recording intervals... More about our weather records

Advertising

Basseterre Weather History for the Previous 24 Hours

Scroll right to see more
 ConditionsComfort  
Time TempWeatherWind HumidityBarometerVisibility
10:55 pm
Thu, Dec 8
79 °FWarm.15 mph84%30.04 "HgN/A
9:55 pm79 °FWarm.13 mph89%30.04 "HgN/A
8:55 pm81 °FWarm.15 mph84%30.04 "HgN/A
7:55 pm81 °FWarm.16 mph84%30.01 "HgN/A
6:55 pm81 °FWarm.17 mph84%29.98 "HgN/A
5:55 pm81 °FWarm.17 mph84%29.98 "HgN/A
4:55 pm82 °FWarm.16 mph79%29.95 "HgN/A
3:55 pm82 °FWarm.16 mph79%29.95 "HgN/A
2:55 pm82 °FWarm.15 mph79%29.95 "HgN/A
1:55 pm84 °FWarm.15 mph74%29.98 "HgN/A
12:55 pm84 °FWarm.16 mph70%29.98 "HgN/A
11:55 am84 °FWarm.18 mph66%30.01 "HgN/A
10:55 am84 °FWarm.18 mph70%30.04 "HgN/A
9:55 am82 °FWarm.17 mph74%30.04 "HgN/A
8:55 am81 °FWarm.16 mph74%30.04 "HgN/A
7:55 am81 °FWarm.15 mph79%30.04 "HgN/A
6:55 am79 °FWarm.15 mph79%30.01 "HgN/A
5:55 am79 °FWarm.17 mph79%29.98 "HgN/A
Weather by CustomWeather, © 2016

See weather overviewHow to use our weather pages